Time,TemperatureF,DewpointF,PressureIn,WindDirection,WindDirectionDegrees,WindSpeedMPH,WindSpeedGustMPH,Humidity,HourlyPrecipIn,Conditions,Clouds,dailyrainin,SoftwareType,DateUTC
2013-02-28 00:00:00,49.5,39.8,30.29,SSE,158,0.0,0.0,69,0.00,,CLR,0.00,VWS V13.01,2013-02-28 08:00:00,
2013-02-28 00:15:00,49.4,40.8,30.29,SSE,158,1.0,5.0,72,0.00,,CLR,0.00,VWS V13.01,2013-02-28 08:15:00,
2013-02-28 00:30:00,49.1,40.8,30.30,SSE,158,3.0,6.0,73,0.00,,CLR,0.00,VWS V13.01,2013-02-28 08:30:00,
2013-02-28 00:45:00,48.8,40.9,30.30,SSE,158,0.0,4.0,74,0.00,,CLR,0.00,VWS V13.01,2013-02-28 08:45:00,
2013-02-28 01:00:00,48.6,40.7,30.30,SSE,158,0.0,2.0,74,0.00,,CLR,0.00,VWS V13.01,2013-02-28 09:00:00,
2013-02-28 01:15:00,48.2,40.7,30.30,SSE,158,0.0,0.0,75,0.00,,CLR,0.00,VWS V13.01,2013-02-28 09:15:00,
2013-02-28 01:30:00,47.8,40.3,30.30,SSE,158,0.0,0.0,75,0.00,,CLR,0.00,VWS V13.01,2013-02-28 09:30:00,
2013-02-28 01:45:00,47.5,40.7,30.30,SSE,158,0.0,0.0,77,0.00,,CLR,0.00,VWS V13.01,2013-02-28 09:45:00,
2013-02-28 02:00:00,47.3,40.8,30.31,SSE,158,0.0,0.0,78,0.00,,CLR,0.00,VWS V13.01,2013-02-28 10:00:00,
2013-02-28 02:15:00,47.7,40.8,30.31,SSE,158,0.0,4.0,77,0.00,,CLR,0.00,VWS V13.01,2013-02-28 10:15:00,
2013-02-28 02:30:00,47.9,40.7,30.30,SSE,158,0.0,5.0,76,0.00,,CLR,0.00,VWS V13.01,2013-02-28 10:30:00,
2013-02-28 02:45:00,48.1,41.2,30.30,SSE,158,0.0,6.0,77,0.00,,CLR,0.00,VWS V13.01,2013-02-28 10:45:00,
2013-02-28 03:00:00,47.8,40.6,30.30,SSE,158,0.0,0.0,76,0.00,,CLR,0.00,VWS V13.01,2013-02-28 11:00:00,
2013-02-28 03:15:00,47.6,40.8,30.30,SSE,158,0.0,0.0,77,0.00,,CLR,0.00,VWS V13.01,2013-02-28 11:15:00,
2013-02-28 03:30:00,47.2,40.4,30.29,SSE,158,0.0,0.0,77,0.00,,CLR,0.00,VWS V13.01,2013-02-28 11:30:00,
2013-02-28 03:45:00,46.9,40.7,30.30,SSE,158,0.0,0.0,79,0.00,,CLR,0.00,VWS V13.01,2013-02-28 11:45:00,
2013-02-28 04:00:00,47.6,42.1,30.30,SSE,158,0.0,0.0,81,0.00,,CLR,0.00,VWS V13.01,2013-02-28 12:00:00,
2013-02-28 04:15:00,47.7,41.2,30.30,SSE,158,0.0,0.0,78,0.00,,CLR,0.00,VWS V13.01,2013-02-28 12:15:00,
2013-02-28 04:30:00,47.0,40.2,30.31,SSE,158,0.0,0.0,77,0.00,,CLR,0.00,VWS V13.01,2013-02-28 12:30:00,
2013-02-28 04:45:00,46.1,40.0,30.31,SSE,158,0.0,0.0,79,0.00,,CLR,0.00,VWS V13.01,2013-02-28 12:45:00,
2013-02-28 05:00:00,45.0,38.9,30.31,SSE,158,0.0,0.0,79,0.00,,CLR,0.00,VWS V13.01,2013-02-28 13:00:00,
2013-02-28 05:15:00,44.9,39.8,30.31,SSE,158,0.0,0.0,82,0.00,,CLR,0.00,VWS V13.01,2013-02-28 13:15:00,
2013-02-28 05:30:00,44.6,39.5,30.32,SSE,158,0.0,0.0,82,0.00,,CLR,0.00,VWS V13.01,2013-02-28 13:30:00,
2013-02-28 05:45:00,43.9,38.5,30.33,SSE,158,0.0,0.0,81,0.00,,CLR,0.00,VWS V13.01,2013-02-28 13:45:00,
2013-02-28 06:00:00,43.6,38.8,30.34,SSE,158,0.0,0.0,83,0.00,,CLR,0.00,VWS V13.01,2013-02-28 14:00:00,
2013-02-28 06:15:00,43.7,39.2,30.33,SSE,158,0.0,0.0,84,0.00,,CLR,0.00,VWS V13.01,2013-02-28 14:15:00,
2013-02-28 06:30:00,43.7,39.2,30.34,SSE,158,0.0,0.0,84,0.00,,CLR,0.00,VWS V13.01,2013-02-28 14:30:00,
2013-02-28 06:45:00,43.6,39.7,30.34,SSE,158,0.0,0.0,86,0.00,,CLR,0.00,VWS V13.01,2013-02-28 14:45:00,
2013-02-28 07:00:00,44.6,41.0,30.35,SSE,158,0.0,2.0,87,0.00,,CLR,0.00,VWS V13.01,2013-02-28 15:00:00,
2013-02-28 07:15:00,45.5,41.3,30.36,SSE,158,0.0,0.0,85,0.00,,CLR,0.00,VWS V13.01,2013-02-28 15:15:00,
2013-02-28 07:30:00,46.9,42.6,30.36,SSE,158,0.0,0.0,85,0.00,,CLR,0.00,VWS V13.01,2013-02-28 15:30:00,
2013-02-28 07:51:00,48.5,43.6,30.36,SSE,158,0.0,0.0,83,0.00,,CLR,0.00,VWS V13.01,2013-02-28 15:51:00,
2013-02-28 07:58:00,49.1,43.8,30.37,SSE,159,0.0,0.0,82,0.00,,CLR,0.00,VWS V13.01,2013-02-28 15:58:00,
2013-02-28 08:04:00,49.5,44.2,30.37,SSE,159,0.0,0.0,82,0.00,,CLR,0.00,VWS V13.01,2013-02-28 16:04:00,
2013-02-28 08:10:00,50.0,44.4,30.37,SSE,159,0.0,0.0,81,0.00,,CLR,0.00,VWS V13.01,2013-02-28 16:10:00,
2013-02-28 08:17:00,51.0,44.7,30.37,SSE,159,0.0,0.0,79,0.00,,CLR,0.00,VWS V13.01,2013-02-28 16:17:00,
2013-02-28 08:23:00,51.6,44.6,30.37,SSE,159,0.0,0.0,77,0.00,,CLR,0.00,VWS V13.01,2013-02-28 16:23:00,
2013-02-28 08:29:00,52.2,44.2,30.37,SSE,159,0.0,0.0,74,0.00,,CLR,0.00,VWS V13.01,2013-02-28 16:29:00,
2013-02-28 08:35:00,53.0,44.6,30.37,SSE,159,0.0,0.0,73,0.00,,CLR,0.00,VWS V13.01,2013-02-28 16:35:00,
2013-02-28 08:41:00,53.9,44.7,30.37,SSE,159,0.0,0.0,71,0.00,,CLR,0.00,VWS V13.01,2013-02-28 16:41:00,
2013-02-28 08:47:00,54.8,45.6,30.38,SSE,159,0.0,0.0,71,0.00,,CLR,0.00,VWS V13.01,2013-02-28 16:47:00,
2013-02-28 08:53:00,55.7,44.9,30.38,SSE,159,0.0,0.0,67,0.00,,CLR,0.00,VWS V13.01,2013-02-28 16:53:00,
2013-02-28 08:59:00,56.5,44.1,30.38,SSE,159,0.0,0.0,63,0.00,,CLR,0.00,VWS V13.01,2013-02-28 16:59:00,
2013-02-28 09:05:00,57.0,45.4,30.38,SSE,159,0.0,0.0,65,0.00,,CLR,0.00,VWS V13.01,2013-02-28 17:05:00,
2013-02-28 09:11:00,57.4,45.3,30.38,SSE,159,0.0,1.0,64,0.00,,CLR,0.00,VWS V13.01,2013-02-28 17:11:00,
2013-02-28 09:17:00,58.1,45.6,30.38,SSE,159,0.0,1.0,63,0.00,,CLR,0.00,VWS V13.01,2013-02-28 17:17:00,
2013-02-28 09:23:00,58.3,45.8,30.38,SSE,159,5.0,5.0,63,0.00,,CLR,0.00,VWS V13.01,2013-02-28 17:23:00,
2013-02-28 09:29:00,58.6,45.2,30.38,SSE,159,0.0,5.0,61,0.00,,CLR,0.00,VWS V13.01,2013-02-28 17:29:00,
2013-02-28 09:35:00,58.9,46.3,30.39,SSE,159,0.0,5.0,63,0.00,,CLR,0.00,VWS V13.01,2013-02-28 17:35:00,
2013-02-28 09:40:00,59.6,46.6,30.39,SSE,159,0.0,0.0,62,0.00,,CLR,0.00,VWS V13.01,2013-02-28 17:40:00,
2013-02-28 09:46:00,60.3,46.8,30.39,SSE,159,0.0,4.0,61,0.00,,CLR,0.00,VWS V13.01,2013-02-28 17:46:00,
2013-02-28 09:52:00,61.0,47.5,30.38,SSE,159,0.0,0.0,61,0.00,,CLR,0.00,VWS V13.01,2013-02-28 17:52:00,
2013-02-28 09:58:00,61.4,47.0,30.38,SSE,163,0.0,1.0,59,0.00,,CLR,0.00,VWS V13.01,2013-02-28 17:58:00,
2013-02-28 10:04:00,62.0,47.1,30.38,SSE,163,0.0,1.0,58,0.00,,CLR,0.00,VWS V13.01,2013-02-28 18:04:00,
2013-02-28 10:10:00,62.0,48.0,30.38,SSE,163,0.0,0.0,60,0.00,,CLR,0.00,VWS V13.01,2013-02-28 18:10:00,
2013-02-28 10:17:00,62.4,47.5,30.39,SSE,163,0.0,0.0,58,0.00,,CLR,0.00,VWS V13.01,2013-02-28 18:17:00,
2013-02-28 10:23:00,63.0,48.5,30.39,SSE,163,0.0,0.0,59,0.00,,CLR,0.00,VWS V13.01,2013-02-28 18:23:00,
2013-02-28 10:29:00,63.8,48.3,30.39,SSE,163,0.0,0.0,57,0.00,,CLR,0.00,VWS V13.01,2013-02-28 18:29:00,
2013-02-28 10:35:00,64.3,48.8,30.38,SSE,163,0.0,0.0,57,0.00,,CLR,0.00,VWS V13.01,2013-02-28 18:35:00,
2013-02-28 10:41:00,65.2,46.1,30.39,SSE,163,1.0,4.0,50,0.00,,CLR,0.00,VWS V13.01,2013-02-28 18:41:00,
2013-02-28 10:47:00,65.8,46.7,30.39,South,182,0.0,7.0,50,0.00,,CLR,0.00,VWS V13.01,2013-02-28 18:47:00,
2013-02-28 10:53:00,66.4,45.0,30.38,WSW,240,0.0,6.0,46,0.00,,CLR,0.00,VWS V13.01,2013-02-28 18:53:00,
2013-02-28 10:59:00,67.0,45.0,30.38,West,259,5.0,6.0,45,0.00,,CLR,0.00,VWS V13.01,2013-02-28 18:59:00,
2013-02-28 11:05:00,67.6,44.9,30.38,West,259,2.0,6.0,44,0.00,,CLR,0.00,VWS V13.01,2013-02-28 19:05:00,
2013-02-28 11:10:00,67.9,45.2,30.38,West,263,2.0,5.0,44,0.00,,CLR,0.00,VWS V13.01,2013-02-28 19:10:00,
2013-02-28 11:16:00,68.7,44.1,30.39,WNW,288,6.0,7.0,41,0.00,,CLR,0.00,VWS V13.01,2013-02-28 19:16:00,
2013-02-28 11:30:00,70.8,44.6,30.38,NNW,343,4.0,9.0,39,0.00,,CLR,0.00,VWS V13.01,2013-02-28 19:30:00,
2013-02-28 11:45:00,71.3,43.7,30.37,NNW,343,4.0,8.0,37,0.00,,CLR,0.00,VWS V13.01,2013-02-28 19:45:00,
2013-02-28 12:00:00,71.9,42.8,30.36,North,5,0.0,6.0,35,0.00,,CLR,0.00,VWS V13.01,2013-02-28 20:00:00,
2013-02-28 12:15:00,71.7,41.9,30.35,North,355,4.0,9.0,34,0.00,,CLR,0.00,VWS V13.01,2013-02-28 20:15:00,
2013-02-28 12:30:00,72.4,42.5,30.34,North,355,0.0,7.0,34,0.00,,CLR,0.00,VWS V13.01,2013-02-28 20:30:00,
2013-02-28 12:45:00,72.6,41.1,30.34,North,360,0.0,7.0,32,0.00,,CLR,0.00,VWS V13.01,2013-02-28 20:45:00,
2013-02-28 13:00:00,72.8,43.6,30.34,North,350,4.0,8.0,35,0.00,,CLR,0.00,VWS V13.01,2013-02-28 21:00:00,
2013-02-28 13:15:00,74.1,42.4,30.34,North,349,2.0,9.0,32,0.00,,CLR,0.00,VWS V13.01,2013-02-28 21:15:00,
2013-02-28 13:30:00,74.1,41.6,30.33,NW,316,0.0,10.0,31,0.00,,CLR,0.00,VWS V13.01,2013-02-28 21:30:00,
2013-02-28 13:45:00,75.3,42.6,30.33,NW,319,5.0,11.0,31,0.00,,CLR,0.00,VWS V13.01,2013-02-28 21:45:00,
2013-02-28 14:00:00,75.7,43.0,30.33,NW,323,7.0,11.0,31,0.00,,CLR,0.00,VWS V13.01,2013-02-28 22:00:00,
2013-02-28 14:15:00,75.7,42.1,30.33,NW,325,5.0,12.0,30,0.00,,CLR,0.00,VWS V13.01,2013-02-28 22:15:00,
2013-02-28 14:30:00,76.2,43.4,30.32,NNW,327,0.0,8.0,31,0.00,,CLR,0.00,VWS V13.01,2013-02-28 22:30:00,
2013-02-28 14:45:00,75.1,44.8,30.32,NNW,327,0.0,6.0,34,0.00,,CLR,0.00,VWS V13.01,2013-02-28 22:45:00,
2013-02-28 15:00:00,73.5,41.0,30.32,NNW,327,0.0,7.0,31,0.00,,CLR,0.00,VWS V13.01,2013-02-28 23:00:00,
2013-02-28 15:15:00,73.2,43.2,30.31,NW,317,0.0,7.0,34,0.00,,CLR,0.00,VWS V13.01,2013-02-28 23:15:00,
2013-02-28 15:30:00,73.1,44.6,30.32,SE,125,0.0,4.0,36,0.00,,CLR,0.00,VWS V13.01,2013-02-28 23:30:00,
2013-02-28 15:45:00,73.6,44.3,30.32,NNW,339,0.0,8.0,35,0.00,,CLR,0.00,VWS V13.01,2013-02-28 23:45:00,
2013-02-28 16:00:00,73.5,42.7,30.32,NNW,339,4.0,8.0,33,0.00,,CLR,0.00,VWS V13.01,2013-03-01 00:00:00,
2013-02-28 16:15:00,73.1,43.1,30.32,NNW,340,0.0,9.0,34,0.00,,CLR,0.00,VWS V13.01,2013-03-01 00:15:00,
2013-02-28 16:30:00,72.7,42.7,30.31,NNW,332,7.0,9.0,34,0.00,,CLR,0.00,VWS V13.01,2013-03-01 00:30:00,
2013-02-28 16:45:00,71.9,42.8,30.31,NNW,346,5.0,8.0,35,0.00,,CLR,0.00,VWS V13.01,2013-03-01 00:45:00,
2013-02-28 17:00:00,71.2,42.9,30.30,NNW,341,1.0,9.0,36,0.00,,CLR,0.00,VWS V13.01,2013-03-01 01:00:00,
2013-02-28 17:15:00,70.4,42.9,30.31,North,360,0.0,6.0,37,0.00,,CLR,0.00,VWS V13.01,2013-03-01 01:15:00,
2013-02-28 17:30:00,69.5,42.8,30.31,North,360,3.0,6.0,38,0.00,,CLR,0.00,VWS V13.01,2013-03-01 01:30:00,
2013-02-28 17:45:00,68.5,43.2,30.32,North,360,1.0,4.0,40,0.00,,CLR,0.00,VWS V13.01,2013-03-01 01:45:00,
2013-02-28 18:00:00,67.4,42.3,30.31,North,360,0.0,1.0,40,0.00,,CLR,0.00,VWS V13.01,2013-03-01 02:00:00,
2013-02-28 18:15:00,65.8,44.5,30.32,North,360,0.0,0.0,46,0.00,,CLR,0.00,VWS V13.01,2013-03-01 02:15:00,
2013-02-28 18:30:00,63.8,42.6,30.32,North,360,0.0,2.0,46,0.00,,CLR,0.00,VWS V13.01,2013-03-01 02:30:00,
2013-02-28 18:45:00,62.8,42.8,30.32,North,360,0.0,0.0,48,0.00,,CLR,0.00,VWS V13.01,2013-03-01 02:45:00,
2013-02-28 19:00:00,61.8,43.5,30.33,North,360,0.0,0.0,51,0.00,,CLR,0.00,VWS V13.01,2013-03-01 03:00:00,
2013-02-28 19:15:00,60.7,43.0,30.33,North,360,0.0,2.0,52,0.00,,CLR,0.00,VWS V13.01,2013-03-01 03:15:00,
2013-02-28 19:30:00,59.7,43.0,30.33,North,360,0.0,0.0,54,0.00,,CLR,0.00,VWS V13.01,2013-03-01 03:30:00,
2013-02-28 19:45:00,58.7,42.6,30.33,North,360,0.0,0.0,55,0.00,,CLR,0.00,VWS V13.01,2013-03-01 03:45:00,
2013-02-28 20:00:00,57.8,43.1,30.34,North,360,2.0,3.0,58,0.00,,CLR,0.00,VWS V13.01,2013-03-01 04:00:00,
2013-02-28 20:06:00,57.5,43.3,30.34,North,355,5.0,6.0,59,0.00,,CLR,0.00,VWS V13.01,2013-03-01 04:06:00,
2013-02-28 20:13:00,57.1,42.9,30.34,North,349,6.0,6.0,59,0.00,,CLR,0.00,VWS V13.01,2013-03-01 04:13:00,
2013-02-28 20:19:00,56.8,43.5,30.34,NNW,337,2.0,7.0,61,0.00,,CLR,0.00,VWS V13.01,2013-03-01 04:19:00,
2013-02-28 20:25:00,56.7,43.8,30.34,NNW,335,5.0,7.0,62,0.00,,CLR,0.00,VWS V13.01,2013-03-01 04:25:00,
2013-02-28 20:31:00,56.6,43.8,30.34,NNW,333,2.0,7.0,62,0.00,,CLR,0.00,VWS V13.01,2013-03-01 04:31:00,
2013-02-28 20:37:00,56.6,43.8,30.34,NNW,333,0.0,0.0,62,0.00,,CLR,0.00,VWS V13.01,2013-03-01 04:37:00,
2013-02-28 20:43:00,56.4,43.6,30.34,NNW,333,0.0,0.0,62,0.00,,CLR,0.00,VWS V13.01,2013-03-01 04:43:00,
2013-02-28 20:49:00,56.1,43.3,30.34,NNW,333,0.0,0.0,62,0.00,,CLR,0.00,VWS V13.01,2013-03-01 04:49:00,
2013-02-28 20:55:00,55.8,43.0,30.35,NNW,333,0.0,0.0,62,0.00,,CLR,0.00,VWS V13.01,2013-03-01 04:55:00,
2013-02-28 21:00:00,55.5,43.1,30.35,NNW,333,0.0,0.0,63,0.00,,CLR,0.00,VWS V13.01,2013-03-01 05:00:00,
2013-02-28 21:01:00,55.4,43.0,30.35,NNW,333,0.0,0.0,63,0.00,,CLR,0.00,VWS V13.01,2013-03-01 05:01:00,
2013-02-28 21:06:00,55.1,42.8,30.35,NNW,333,0.0,0.0,63,0.00,,CLR,0.00,VWS V13.01,2013-03-01 05:06:00,
2013-02-28 21:12:00,54.8,42.9,30.36,NNW,333,0.0,0.0,64,0.00,,CLR,0.00,VWS V13.01,2013-03-01 05:12:00,
2013-02-28 21:15:00,54.7,42.8,30.36,NNW,333,0.0,0.0,64,0.00,,CLR,0.00,VWS V13.01,2013-03-01 05:15:00,
2013-02-28 21:21:00,54.4,42.9,30.36,NNW,333,0.0,0.0,65,0.00,,CLR,0.00,VWS V13.01,2013-03-01 05:21:00,
2013-02-28 21:27:00,54.1,43.0,30.36,NNW,333,0.0,0.0,66,0.00,,CLR,0.00,VWS V13.01,2013-03-01 05:27:00,